CW9414 Weather Reports


time (UTC)temp
C
wind
direction
speed
KPH
gust
KPH
rain 1hr
cm
rain 24hr
cm
rain mn
cm
humidity
%
barometer
mb
20260904192502 28 355 0.0 0.0 0.00 0.00 0.41 84 1009.8
20260904191503 27 355 0.0 0.0 0.00 0.00 0.41 83 1010.2
20260904190503 27 355 0.0 1.6 0.00 0.00 0.38 82 1010.2
20260904173451 27 229 0.0 0.0 0.00 0.00 0.38 84 1011.3
20260904172453 27 229 0.0 0.0 0.00 0.00 0.38 83 1011.3
20260904171450 27 229 0.0 0.0 0.00 0.00 0.38 82 1011.3
20260904170450 27 229 0.0 0.0 0.00 0.00 0.38 80 1011.3
20260904165450 27 229 0.0 0.0 0.00 0.00 0.38 80 1011.4
20260904164451 28 229 0.0 0.0 0.00 0.00 0.38 78 1011.3
20260904163450 28 232 0.0 1.6 0.00 0.00 0.38 76 1011.3
20260904162453 29 236 0.0 0.0 0.00 0.00 0.03 75 1011.3
20260904161450 30 236 0.0 4.8 0.00 0.00 0.03 72 1010.8
20260904160450 30 237 0.0 6.4 0.00 0.00 0.00 71 1010.8
20260904155451 30 169 4.8 6.4 0.00 0.00 0.00 72 1010.6
20260904154450 31 159 0.0 6.4 0.00 0.00 0.00 74 1010.3
20260904153450 31 159 0.0 3.2 0.00 0.00 0.00 75 1010.3
20260904152450 30 159 0.0 4.8 0.00 0.00 0.00 79 1010.3
20260904151450 30 159 0.0 3.2 0.00 0.00 0.00 80 1010.3
20260904150450 30 159 0.0 1.6 0.00 0.00 0.00 81 1010.3
20260904145450 30 159 3.2 4.8 0.00 0.00 0.00 84 1010.3
20260904144450 29 54 0.0 0.0 0.00 0.00 0.00 86 1010.2
20260904143453 29 54 0.0 3.2 0.00 0.00 0.00 87 1010.2
20260904142450 28 54 3.2 4.8 0.00 0.00 0.00 89 1010.2
20260904141450 28 54 0.0 0.0 0.00 0.00 0.00 90 1010.2
20260904140450 28 54 0.0 0.0 0.00 0.00 0.00 91 1010.2
20260904135450 28 42 0.0 3.2 0.00 0.00 0.00 92 1010.2
20260904134450 27 42 0.0 3.2 0.00 0.00 0.00 92 1010.2
20260904133450 27 42 0.0 0.0 0.00 0.00 0.00 92 1010.2
20260904132450 27 42 0.0 1.6 0.00 0.00 0.00 92 1009.9
20260904131450 27 42 0.0 0.0 0.00 0.00 0.00 92 1009.7
20260904130450 27 42 0.0 0.0 0.00 0.00 0.00 92 1009.7
20260904125450 26 42 0.0 0.0 0.00 0.00 0.00 92 1009.7
20260904124450 26 42 0.0 0.0 0.00 0.00 0.00 92 1009.5
20260904123453 26 42 0.0 0.0 0.00 0.00 0.00 92 1009.5
20260904122450 26 42 0.0 0.0 0.00 0.00 0.00 91 1009.2
20260904121450 26 42 0.0 0.0 0.00 0.00 0.00 91 1009.1
20260904120453 26 42 0.0 0.0 0.00 0.00 0.00 91 1009.1
20260904115453 26 42 0.0 0.0 0.00 0.00 0.00 91 1009.1
20260904114450 26 42 0.0 0.0 0.00 0.00 0.00 91 1009.1
20260904113449 26 42 0.0 0.0 0.00 0.00 0.00 91 1009.1
20260904112449 26 42 0.0 0.0 0.00 0.00 0.00 91 1009.1
20260904111450 26 42 0.0 0.0 0.00 0.00 0.00 91 1009.1
20260904110450 26 42 0.0 0.0 0.00 0.00 0.00 91 1009.1
20260904105453 26 42 0.0 0.0 0.00 0.00 0.00 91 1008.9
20260904104449 26 42 0.0 0.0 0.00 0.00 0.00 90 1008.7
20260904103453 26 42 0.0 0.0 0.00 0.00 0.00 90 1008.7
20260904102450 26 42 0.0 0.0 0.00 0.00 0.00 90 1008.6
20260904101450 26 42 0.0 0.0 0.00 0.00 0.00 90 1008.6
20260904100449 26 42 0.0 0.0 0.00 0.00 0.00 90 1008.6
20260904095450 26 42 0.0 0.0 0.00 0.00 0.00 90 1008.6
20260904094450 26 42 0.0 0.0 0.00 0.00 0.00 90 1008.5
20260904093450 26 42 0.0 0.0 0.00 0.00 0.00 90 1008.5
20260904092449 26 42 0.0 0.0 0.00 0.00 0.00 90 1008.5
20260904091450 26 42 0.0 0.0 0.00 0.00 0.00 90 1008.5
20260904090449 26 42 0.0 0.0 0.00 0.00 0.00 90 1008.5
20260904085449 26 42 0.0 0.0 0.00 0.00 0.00 90 1008.6
20260904084449 26 42 0.0 0.0 0.00 0.00 0.00 89 1008.6
20260904083450 26 42 0.0 0.0 0.00 0.00 0.00 89 1008.6
20260904082449 26 42 0.0 0.0 0.00 0.00 0.00 89 1008.6
20260904081453 27 42 0.0 0.0 0.00 0.00 0.00 89 1008.7
20260904080450 27 42 0.0 0.0 0.00 0.00 0.00 89 1008.7
20260904075453 27 42 0.0 0.0 0.00 0.00 0.00 89 1008.7
20260904074449 27 42 0.0 0.0 0.00 0.00 0.00 89 1008.8
20260904073450 27 42 0.0 0.0 0.00 0.00 0.00 89 1008.8
20260904072450 27 42 0.0 0.0 0.00 0.00 0.00 89 1008.8
20260904071450 27 42 0.0 0.0 0.00 0.00 0.00 89 1009.0
20260904070450 27 42 0.0 0.0 0.00 0.00 0.00 89 1009.0
20260904065449 27 42 0.0 0.0 0.00 0.00 0.00 89 1009.1
20260904064450 27 42 0.0 0.0 0.00 0.00 0.00 89 1009.1
20260904063449 27 42 0.0 0.0 0.00 0.00 0.00 89 1009.1
20260904062450 27 42 0.0 0.0 0.00 0.00 0.00 89 1009.1
20260904061450 27 42 0.0 0.0 0.00 0.00 0.00 89 1009.1
20260904060449 27 42 0.0 0.0 0.00 0.00 0.00 89 1009.1
20260904055450 27 42 0.0 3.2 0.00 0.00 0.00 89 1009.1
20260904054450 27 42 0.0 3.2 0.00 0.00 0.00 89 1009.0
20260904053453 27 41 0.0 0.0 0.00 0.00 0.00 89 1009.0
20260904052450 27 41 0.0 0.0 0.00 0.00 0.00 89 1009.0
20260904051450 27 41 0.0 0.0 0.00 0.00 0.00 89 1009.1
20260904050453 27 41 0.0 1.6 0.00 0.00 1.27 89 1009.1
20260904045449 27 41 0.0 3.2 0.00 0.00 1.27 89 1009.1
20260904044449 27 40 0.0 0.0 0.00 0.00 1.27 89 1009.0
20260904043449 27 40 0.0 0.0 0.00 0.00 1.27 89 1009.0
20260904042449 27 40 0.0 0.0 0.00 0.00 1.27 89 1008.9
20260904041449 27 40 0.0 0.0 0.00 0.00 1.27 89 1009.0
20260904040449 27 40 0.0 3.2 0.00 0.00 1.27 90 1009.0
20260904035449 27 18 0.0 0.0 0.00 0.00 1.27 90 1009.1
20260904034450 27 18 0.0 1.6 0.00 0.00 1.27 90 1009.1
20260904033450 27 18 0.0 1.6 0.00 0.00 1.27 90 1009.1
20260904032453 27 18 0.0 0.0 0.00 0.00 1.27 90 1009.1
20260904031453 27 18 0.0 1.6 0.00 0.00 1.27 90 1009.1
20260904030450 27 18 0.0 1.6 0.00 0.00 1.27 90 1009.1
20260904025450 27 18 0.0 1.6 0.00 0.00 1.27 89 1009.0
20260904024449 26 17 0.0 0.0 0.00 0.00 1.27 89 1008.6
20260904023452 26 18 0.0 0.0 0.00 0.00 1.27 89 1008.6
20260904022452 26 18 0.0 0.0 0.00 0.00 1.27 88 1008.6
20260904021452 26 17 0.0 0.0 0.00 0.00 1.27 88 1008.5
20260904020452 26 18 0.0 0.0 0.00 0.00 1.27 88 1008.5
20260904015449 26 18 0.0 0.0 0.00 0.00 1.27 87 1008.2
20260904014449 26 18 0.0 0.0 0.00 0.00 1.27 87 1008.1
20260904013449 26 18 0.0 0.0 0.00 0.00 1.27 87 1008.1
20260904012449 26 18 0.0 0.0 0.00 0.00 1.27 87 1008.1
20260904011450 27 18 0.0 0.0 0.00 0.00 1.27 87 1008.1
20260904010449 27 18 0.0 0.0 0.00 0.00 1.27 87 1008.1
20260904005449 27 18 0.0 0.0 0.00 0.00 1.27 87 1008.0
20260904004449 27 18 0.0 0.0 0.00 0.00 1.27 88 1008.1
20260904003449 27 18 0.0 0.0 0.00 0.00 1.27 88 1008.1
20260904002449 27 18 0.0 0.0 0.00 0.00 1.27 88 1008.1
20260904001449 27 18 0.0 0.0 0.00 0.00 1.27 88 1008.1
20260904000449 27 18 0.0 0.0 0.00 0.00 1.27 88 1008.1
20260903235452 27 18 0.0 0.0 0.00 0.00 1.27 88 1008.1
20260903234452 27 18 0.0 0.0 0.00 0.00 1.27 88 1008.1
20260903233449 27 18 0.0 0.0 0.00 0.00 1.27 88 1008.1
20260903232452 26 18 0.0 0.0 0.00 0.00 1.27 88 1008.5
20260903231449 26 18 0.0 0.0 0.00 0.00 1.27 88 1008.5
20260903230449 26 18 0.0 0.0 0.00 0.00 1.27 88 1008.5
20260903225452 26 18 0.0 0.0 0.00 0.00 1.27 88 1008.5
20260903224449 26 18 0.0 0.0 0.00 0.00 1.27 88 1008.4
20260903223449 26 18 0.0 0.0 0.00 0.00 1.27 88 1008.4
20260903222449 26 18 0.0 0.0 0.00 0.00 1.27 88 1008.4
20260903221449 26 18 0.0 0.0 0.00 0.00 1.27 88 1008.6
20260903220449 26 18 0.0 1.6 0.00 0.00 1.27 88 1008.6
20260903215452 26 18 0.0 1.6 0.00 0.00 1.27 88 1009.0
20260903214449 26 18 0.0 1.6 0.00 0.00 1.27 87 1009.2
20260903213449 26 17 0.0 0.0 0.00 0.00 1.24 86 1009.2
20260903212449 26 17 0.0 0.0 0.00 0.00 1.24 86 1009.5
20260903211449 26 17 0.0 0.0 0.00 0.00 1.22 86 1009.2
20260903210452 26 17 0.0 0.0 0.00 0.00 1.19 85 1009.2
20260903205449 25 17 0.0 0.0 0.00 0.00 1.14 83 1009.4
20260903204449 26 17 0.0 0.0 0.00 0.00 1.09 82 1009.6
20260903203452 26 17 0.0 0.0 0.00 0.00 1.09 82 1009.6
20260903202452 26 17 0.0 0.0 0.00 0.00 1.09 82 1009.7
20260903201449 26 17 0.0 1.6 0.00 0.00 1.07 82 1009.6
20260903200449 26 17 0.0 3.2 0.00 0.00 1.07 82 1009.6
20260903195449 27 18 0.0 0.0 0.00 0.00 1.07 80 1009.6
20260903194452 27 18 0.0 1.6 0.00 0.00 1.04 79 1009.9
20260903193449 27 18 0.0 0.0 0.00 0.00 0.99 77 1009.9